Weather History for Raleigh-Durham Airport, NC

Change the Weather History Date:

Monday, October 10, 2011

  Actual Average Record
Temperature  
Mean Temperature 66 °F 63 °F  
Max Temperature 75 °F 74 °F 91 °F (1939)
Min Temperature 56 °F 52 °F 31 °F (2000)
Degree Days  
Heating Degree Days 0 4  
Month to date heating degree days 51 31  
Since 1 July heating degree days 66 52  
Cooling Degree Days 1 2  
Month to date cooling degree days 1 28  
Year to date cooling degree days 2085 1696  
Growing Degree Days 16 (Base 50)    
Moisture  
Dew Point 53 °F    
Average Humidity 63    
Maximum Humidity 80    
Minimum Humidity 46    
Precipitation  
Precipitation 0.00 in 0.10 in 1.30 in (1959)
Month to date precipitation 0.00 1.10  
Year to date precipitation 34.82 35.00  
Sea Level Pressure  
Sea Level Pressure 30.20 in    
Wind  
Wind Speed 7 mph (NE)    
Max Wind Speed 12 mph    
Max Gust Speed 15 mph    
Visibility 10 miles    
Events      
T = Trace of Precipitation, MM = Missing Value Source: NWS Daily Summary

Daily Weather History Graph

Daily Weather History Graph

Search for Another Location

Airport:

Trip Planner

Search our weather history database for the weather conditions in past years. The results will help you decide how hot, cold, wet, or windy it might be!

Date:

Astronomy

Oct. 10, 2011 Rise Set
Actual Time 7:17 AM EDT 6:46 PM EDT
Civil Twilight 6:51 AM EDT 7:12 PM EDT
Nautical Twilight 6:21 AM EDT 7:41 PM EDT
Astronomical Twilight 5:52 AM EDT 8:11 PM EDT
Moon 5:49 PM EDT (10/10) 5:57 AM EDT (10/10)
Length of Visible Light 12h 20m
Length of Day
11h 29m
Waxing Gibbous, 98% of the Moon is Illuminated
Oct 10
Waxing Gibbous
Oct 11
Full
Oct 19
Last Quarter
Oct 26
New
Nov 2
First Quarter

Hourly Weather History & Observations

Time (EDT) Temp. Dew Point Humidity Pressure Visibility Wind Dir Wind Speed Gust Speed Precip Events Conditions
12:51 AM 59.0 °F 53.1 °F 81% 30.30 in 10.0 mi NE 3.5 mph - N/A   Mostly Cloudy
1:51 AM 60.1 °F 53.1 °F 78% 30.28 in 10.0 mi NE 5.8 mph - N/A   Mostly Cloudy
2:51 AM 59.0 °F 51.1 °F 75% 30.27 in 10.0 mi NNE 4.6 mph - N/A   Mostly Cloudy
3:51 AM 57.2 °F 50.0 °F 77% 30.26 in 10.0 mi NNE 3.5 mph - N/A   Mostly Cloudy
4:51 AM 57.0 °F 50.0 °F 77% 30.25 in 10.0 mi Calm Calm - N/A   Mostly Cloudy
5:51 AM 57.9 °F 48.0 °F 70% 30.25 in 10.0 mi NNE 5.8 mph - N/A   Overcast
6:51 AM 57.0 °F 48.9 °F 74% 30.25 in 10.0 mi NNE 5.8 mph - N/A   Overcast
7:51 AM 57.9 °F 51.1 °F 78% 30.25 in 10.0 mi NNE 5.8 mph - N/A   Mostly Cloudy
8:51 AM 60.1 °F 51.1 °F 72% 30.26 in 10.0 mi NE 5.8 mph - N/A   Mostly Cloudy
9:51 AM 64.0 °F 51.1 °F 63% 30.25 in 10.0 mi NE 9.2 mph - N/A   Mostly Cloudy
10:51 AM 66.9 °F 53.1 °F 61% 30.25 in 10.0 mi NE 6.9 mph - N/A   Overcast
11:51 AM 71.1 °F 52.0 °F 51% 30.24 in 10.0 mi East 9.2 mph - N/A   Overcast
12:51 PM 72.0 °F 52.0 °F 49% 30.22 in 10.0 mi ENE 6.9 mph - N/A   Overcast
1:51 PM 73.9 °F 52.0 °F 46% 30.18 in 10.0 mi NE 10.4 mph - N/A   Mostly Cloudy
2:51 PM 75.0 °F 55.0 °F 50% 30.15 in 10.0 mi ENE 8.1 mph - N/A   Mostly Cloudy
3:51 PM 73.9 °F 55.0 °F 52% 30.15 in 10.0 mi ENE 9.2 mph - N/A   Overcast
4:51 PM 73.0 °F 55.9 °F 55% 30.14 in 10.0 mi ENE 6.9 mph - N/A   Overcast
5:51 PM 71.1 °F 55.0 °F 57% 30.13 in 10.0 mi NE 6.9 mph - N/A   Overcast
6:51 PM 69.1 °F 55.9 °F 63% 30.12 in 10.0 mi NE 8.1 mph - N/A   Overcast
7:51 PM 68.0 °F 57.0 °F 68% 30.11 in 10.0 mi NE 8.1 mph - N/A   Overcast
8:51 PM 68.0 °F 57.0 °F 68% 30.12 in 10.0 mi NE 8.1 mph - N/A   Overcast
9:51 PM 66.9 °F 57.0 °F 70% 30.12 in 10.0 mi NE 6.9 mph - N/A   Overcast
10:51 PM 66.9 °F 57.0 °F 70% 30.11 in 10.0 mi ENE 6.9 mph - N/A   Overcast
11:51 PM 66.9 °F 57.0 °F 70% 30.10 in 10.0 mi NNE 5.8 mph - N/A   Overcast